NOAA 16 DEB, 41287

Orbit data source: Space-Track

NOAA 16 DEB, 41287 is space debris in SSO originally from a launch on Thu, 21 Sep 2000 UTC launched from the Air Force Western Test Range (AFWTR). Debris objects in space refer to the collection of defunct objects orbiting the Earth. Examples of debris include non-operational satellites, rocket bodies, and fragments generated from explosions, collisions, or faulty payload assembly.

Loading next visibility...
Identifier
41287, 2000-055GP
Orbit
SSO
Country
Flag of USUS
Related business
Manufacturer
Unknown
Mission
Spacecraft
Bus & Motor
Unknown
Mass
Unknown
Launch date (UTC)
2000-09-21 (25 years ago)
Launch vehicle
Unknown
Launch site
Air Force Western Test Range (AFWTR)
Object type
Payload
Rocket body
Debris
Shape & HBR
Unknown shape, 0.1 m
Radar Cross Section
Small (<0.1 m²)

Expand to show TLE details & history
Last TLE update: 1 day ago

TLE from 1 day ago
0 NOAA 16 DEB
1 41287U 00055GP  25300.41240900  .00007345  00000-0  31049-2 0  9990
2 41287  98.8721   6.4258 0033675 185.0729 175.0113 14.25512281506077
Epoch: 2025-10-27T09:53Z
TLE epoch observation values (Epoch: 2025-10-27T09:53:52.137Z)
Latitude
-0.00008°
Longitude
-178.05605°
Altitude
833.797 km
Speed
7.424 km/s
True Right ascension
00h 25m 42s
True Declination
0° 00' 00"
Sunlit
Object was in full shadow at epoch
Visualization orbit readout
Latitude
Unknown
Longitude
Unknown
Altitude
Unknown
Speed
Unknown
Apparent Right ascension
Unknown
Apparent Declination
Unknown
Sunlit
N/A
Visualization observer readout
Local Sidereal Time
05:57:01
Azimuth
Unknown
Elevation
Unknown
Doppler factor
Unknown
Orbital elements
Apogee altitude
828.115 km
Perigee altitude
779.744 km
Semi-major axis
7,182.067 km
Eccentricity
0.00337
Inclination
98.8721°
RAAN
6.4258°
Arg. of periapsis
185.0729°
True anomaly
175.04472°
Mean anomaly
175.0113°
Eccentric anomaly
175.02802°
Mean motion
3.5659 °/min
Orbital period
100.96 mins
BSTAR
0.0031049
Loading maneuver chart data...
Computing Atmospheric mass density...
Loading historical data...
Loading historical data...
Loading historical data...
Loading historical data...
Loading historical data...
Loading historical data...
Loading historical data...

Documentation

Showing up to 5 results
|